Hourly Weather Bubanza

Today, 14 August, Friday

Time Temperature Precipitation Wind Pressure Humidity
00:00 +24°C° 0 mm 1 mps 673 mmHg 48%
01:00 +23°C° 0 mm 1 mps 673 mmHg 49%
02:00 +23°C° 0 mm 1 mps 673 mmHg 51%
03:00 +20°C° 0 mm 0 mps 673 mmHg 53%
04:00 +20°C° 0 mm 0 mps 673 mmHg 54%
05:00 +19°C° 0 mm 0 mps 673 mmHg 56%
06:00 +22°C° 0 mm 0 mps 673 mmHg 50%
07:00 +24°C° 0 mm 0 mps 674 mmHg 45%
08:00 +26°C° 0 mm 0 mps 674 mmHg 40%
09:00 +30°C° 0 mm 1 mps 675 mmHg 34%
10:00 +33°C° 0 mm 1 mps 675 mmHg 29%
11:00 +35°C° 0 mm 1 mps 675 mmHg 23%
12:00 +36°C° 0 mm 2 mps 674 mmHg 23%
13:00 +35°C° 0 mm 4 mps 673 mmHg 24%
14:00 +35°C° 0 mm 5 mps 671 mmHg 24%
15:00 +34°C° 0 mm 4 mps 671 mmHg 27%
16:00 +33°C° 0 mm 3 mps 670 mmHg 30%
17:00 +31°C° 0 mm 3 mps 670 mmHg 33%
18:00 +29°C° 0 mm 2 mps 670 mmHg 39%
19:00 +26°C° 0 mm 1 mps 670 mmHg 44%
20:00 +24°C° 0 mm 1 mps 670 mmHg 50%
21:00 +24°C° 0 mm 1 mps 671 mmHg 49%
22:00 +24°C° 0 mm 1 mps 671 mmHg 47%
23:00 +24°C° 0 mm 1 mps 672 mmHg 46%

Tomorrow, 15 August, Saturday

Time Temperature Precipitation Wind Pressure Humidity
00:00 +22°C° 0 mm 0 mps 672 mmHg 46%
01:00 +22°C° 0 mm 0 mps 671 mmHg 46%
02:00 +22°C° 0 mm 0 mps 671 mmHg 46%
03:00 +21°C° 0 mm 0 mps 671 mmHg 46%
04:00 +23°C° 0 mm 1 mps 671 mmHg 47%
05:00 +22°C° 0 mm 1 mps 671 mmHg 48%
06:00 +24°C° 0 mm 1 mps 672 mmHg 43%
07:00 +27°C° 0 mm 1 mps 673 mmHg 38%
08:00 +27°C° 0 mm 0 mps 674 mmHg 34%
09:00 +31°C° 0 mm 1 mps 674 mmHg 31%
10:00 +32°C° 0 mm 2 mps 674 mmHg 28%
11:00 +35°C° 0 mm 3 mps 674 mmHg 25%
12:00 +35°C° 0 mm 3 mps 673 mmHg 25%
13:00 +35°C° 0 mm 3 mps 672 mmHg 25%
14:00 +35°C° 0 mm 3 mps 671 mmHg 25%
15:00 +34°C° 0 mm 3 mps 671 mmHg 27%
16:00 +33°C° 0 mm 3 mps 670 mmHg 28%
17:00 +31°C° 0 mm 3 mps 670 mmHg 30%
18:00 +29°C° 0 mm 2 mps 670 mmHg 35%
19:00 +27°C° 0 mm 1 mps 670 mmHg 40%
20:00 +23°C° 0 mm 0 mps 671 mmHg 44%
21:00 +22°C° 0 mm 0 mps 671 mmHg 45%
22:00 +22°C° 0 mm 0 mps 671 mmHg 46%
23:00 +21°C° 0 mm 0 mps 672 mmHg 46%

Day after tomorrow, 16 August, Sunday

Time Temperature Precipitation Wind Pressure Humidity
00:00 +23°C° 0 mm 1 mps 671 mmHg 47%
01:00 +23°C° 0 mm 1 mps 671 mmHg 47%
02:00 +23°C° 0 mm 1 mps 671 mmHg 47%
03:00 +23°C° 0 mm 1 mps 671 mmHg 46%
04:00 +22°C° 0 mm 1 mps 671 mmHg 46%
05:00 +22°C° 0 mm 1 mps 671 mmHg 45%
06:00 +24°C° 0 mm 1 mps 672 mmHg 40%
07:00 +26°C° 0 mm 1 mps 673 mmHg 36%
08:00 +26°C° 0 mm 0 mps 673 mmHg 32%
09:00 +30°C° 0 mm 1 mps 674 mmHg 28%
10:00 +32°C° 0 mm 2 mps 674 mmHg 25%
11:00 +35°C° 0 mm 3 mps 674 mmHg 22%
12:00 +35°C° 0 mm 3 mps 673 mmHg 23%
13:00 +35°C° 0 mm 4 mps 672 mmHg 23%
14:00 +35°C° 0 mm 4 mps 671 mmHg 24%
15:00 +34°C° 0 mm 4 mps 671 mmHg 26%
16:00 +33°C° 0 mm 3 mps 671 mmHg 28%
17:00 +31°C° 0 mm 3 mps 670 mmHg 30%
18:00 +29°C° 0 mm 2 mps 670 mmHg 35%
19:00 +27°C° 0 mm 2 mps 671 mmHg 39%
20:00 +25°C° 0 mm 1 mps 671 mmHg 44%
21:00 +24°C° 0 mm 1 mps 671 mmHg 44%
22:00 +24°C° 0 mm 1 mps 672 mmHg 44%
23:00 +24°C° 0 mm 1 mps 672 mmHg 45%

17 August, Monday

Time Temperature Precipitation Wind Pressure Humidity
00:00 +23°C° 0 mm 1 mps 672 mmHg 45%
01:00 +23°C° 0 mm 1 mps 671 mmHg 46%
02:00 +23°C° 0 mm 1 mps 671 mmHg 46%
03:00 +23°C° 0 mm 1 mps 671 mmHg 46%
04:00 +22°C° 0 mm 1 mps 671 mmHg 46%
05:00 +22°C° 0 mm 1 mps 671 mmHg 46%
06:00 +24°C° 0 mm 1 mps 672 mmHg 41%
07:00 +27°C° 0 mm 1 mps 673 mmHg 37%
08:00 +29°C° 0 mm 1 mps 674 mmHg 32%
09:00 +30°C° 0 mm 2 mps 674 mmHg 30%
10:00 +33°C° 0 mm 3 mps 674 mmHg 28%
11:00 +34°C° 0 mm 3 mps 674 mmHg 26%
12:00 +34°C° 0 mm 3 mps 673 mmHg 25%
13:00 +34°C° 0 mm 4 mps 672 mmHg 25%
14:00 +35°C° 0 mm 4 mps 672 mmHg 25%
15:00 +34°C° 0 mm 4 mps 671 mmHg 26%
16:00 +33°C° 0 mm 3 mps 671 mmHg 28%
17:00 +31°C° 0 mm 3 mps 670 mmHg 29%
18:00 +29°C° 0 mm 2 mps 671 mmHg 32%
19:00 +27°C° 0 mm 2 mps 671 mmHg 36%
20:00 +25°C° 0 mm 1 mps 671 mmHg 39%
21:00 +25°C° 0 mm 1 mps 672 mmHg 40%
22:00 +24°C° 0 mm 1 mps 672 mmHg 41%
23:00 +24°C° 0 mm 1 mps 672 mmHg 41%

18 August, Tuesday

Time Temperature Precipitation Wind Pressure Humidity
00:00 +24°C° 0 mm 1 mps 672 mmHg 42%
01:00 +24°C° 0 mm 1 mps 672 mmHg 43%
02:00 +23°C° 0 mm 1 mps 671 mmHg 44%
03:00 +23°C° 0 mm 1 mps 672 mmHg 44%
04:00 +23°C° 0 mm 1 mps 672 mmHg 45%
05:00 +22°C° 0 mm 1 mps 672 mmHg 45%
06:00 +24°C° 0 mm 1 mps 673 mmHg 41%
07:00 +26°C° 0 mm 1 mps 673 mmHg 38%
08:00 +27°C° 0 mm 1 mps 674 mmHg 34%
09:00 +29°C° 0 mm 2 mps 674 mmHg 31%
10:00 +31°C° 0 mm 2 mps 674 mmHg 28%
11:00 +34°C° 0 mm 3 mps 674 mmHg 26%
12:00 +34°C° 0 mm 3 mps 674 mmHg 25%
13:00 +35°C° 0 mm 3 mps 673 mmHg 24%
14:00 +35°C° 0 mm 3 mps 672 mmHg 24%
15:00 +34°C° 0 mm 3 mps 671 mmHg 26%
16:00 +33°C° 0 mm 3 mps 671 mmHg 29%
17:00 +31°C° 0 mm 2 mps 670 mmHg 32%
18:00 +29°C° 0 mm 2 mps 671 mmHg 37%
19:00 +27°C° 0 mm 1 mps 671 mmHg 43%
20:00 +24°C° 0 mm 1 mps 671 mmHg 49%
21:00 +24°C° 0 mm 1 mps 671 mmHg 48%
22:00 +24°C° 0 mm 1 mps 672 mmHg 47%
23:00 +24°C° 0 mm 1 mps 672 mmHg 46%

19 August, Wednesday

Time Temperature Precipitation Wind Pressure Humidity
00:00 +24°C° 0 mm 1 mps 672 mmHg 47%
01:00 +23°C° 0 mm 1 mps 671 mmHg 48%
02:00 +23°C° 0 mm 1 mps 671 mmHg 49%
03:00 +23°C° 0 mm 1 mps 671 mmHg 50%
04:00 +22°C° 0 mm 1 mps 671 mmHg 50%
05:00 +22°C° 0 mm 1 mps 671 mmHg 51%
06:00 +24°C° 0 mm 1 mps 672 mmHg 46%
07:00 +26°C° 0 mm 1 mps 673 mmHg 40%
08:00 +28°C° 0 mm 1 mps 674 mmHg 35%
09:00 +30°C° 0 mm 2 mps 674 mmHg 32%
10:00 +33°C° 0 mm 3 mps 674 mmHg 28%
11:00 +35°C° 0 mm 3 mps 674 mmHg 25%
12:00 +35°C° 0 mm 4 mps 673 mmHg 26%
13:00 +35°C° 0 mm 4 mps 672 mmHg 26%
14:00 +35°C° 0 mm 4 mps 671 mmHg 27%
15:00 +34°C° 0 mm 4 mps 671 mmHg 28%
16:00 +33°C° 0 mm 3 mps 670 mmHg 30%
17:00 +31°C° 0 mm 3 mps 670 mmHg 32%
18:00 +29°C° 0 mm 2 mps 670 mmHg 35%
19:00 +27°C° 0 mm 1 mps 670 mmHg 39%
20:00 +25°C° 0 mm 1 mps 671 mmHg 43%
21:00 +24°C° 0 mm 1 mps 671 mmHg 43%
22:00 +24°C° 0 mm 1 mps 671 mmHg 43%
23:00 +24°C° 0 mm 1 mps 671 mmHg 43%
Show more